Retour au catalogue

STARLINK-30988

ActifCommunicationsVLEO
NORAD 58529·PAYLOAD·🇺🇸 United States

Lancé Dec 7, 2023 depuis Cape Canaveral Space Force Station

Loading…

Prochains Passages (prochaines 24 heures)

TLE

FraisSource: CelesTrak SupGP

Époque: Sep 14, 2026, 22:11 UTC

1 58529C 23191X   26257.92479167 -.00034838  00000+0 -12622-2 0  2571
2 58529  43.0026 114.6615 0001241 276.4817  68.0588 15.27586859    15

Suivez STARLINK-30988 en temps réel avec AllMySat

Download on the App Store